Temperature
15 14 14 14 14 14 14 14 15 15 15 15 15 15 15 15 15 15 15 15 15 15 15 15 15 15 15 15 15 14 14 14 14 14 14 14 14 14 14 14 14 14 14
15 14 14 14 14 14 14 14 14 15 14 14 15 15 15 15 15 15 15 15 15 15 14 14 14 15 15 15 15 14 14 14 14 14 14 14 14 14 14 14 14 14 14
14 14 14 14 14 14 14 14 14 14 14 14 14 14 14 14 14 14 14 15 14 14 14 14 14 14 14 14 14 14 14 14 14 14 14 14 14 14 13 13 13 13 14
14 14 14 14 14 14 14 14 14 14 14 14 14 14 14 14 14 14 14 14 14 14 14 14 14 14 14 14 14 14 14 14 14 14 14 14 14 13 13 13 13 13 13
14 14 14 14 14 14 14 14 13 14 14 14 14 14 14 14 14 14 14 14 14 14 14 14 14 14 14 14 14 14 14 14 14 14 14 14 13 13 13 13 13 13 13
13 13 13 13 13 13 13 13 13 13 13 13 13 14 14 14 14 14 14 14 14 14 14 14 14 14 14 14 14 14 13 13 13 13 13 13 13 13 13 13 13 13 13
13 13 13 13 13 13 13 13 13 13 13 13 13 13 14 14 14 14 14 14 14 13 13 14 14 14 13 13 13 13 13 13 13 13 13 13 13 13 12 12 12 13 12
13 13 13 13 13 13 13 13 13 13 13 13 13 13 13 13 13 13 13 13 13 13 13 13 13 13 13 13 13 13 13 13 13 13 13 13 13 13 12 12 12 12 12
12 12 12 12 12 12 12 13 13 12 13 13 13 13 13 13 13 13 13 13 13 13 13 13 13 13 13 13 13 13 13 13 13 13 12 13 12 12 12 12 12 12 12
12 12 12 12 12 12 12 12 12 12 12 12 13 13 13 13 13 13 13 13 13 13 13 13 13 13 13 13 13 13 13 12 12 12 12 12 12 12 12 12 12 11 11
11 12 12 12 12 12 12 12 12 12 12 12 12 12 12 12 12 12 12 12 12 12 12 12 12 12 12 12 12 12 12 12 12 12 12 12 12 12 12 11 11 11 11
11 11 11 11 11 12 12 12 12 12 12 12 12 12 12 12 12 12 12 12 12 12 12 12 12 12 12 12 12 12 12 12 12 12 12 11 11 11 11 11 11 11 11
11 11 11 11 11 11 11 11 11 11 11 11 12 12 12 12 12 12 12 12 12 12 12 12 12 12 12 12 12 12 12 12 12 11 11 11 11 11 11 11 11 10 10
10 10 10 11 11 11 11 11 11 11 11 11 11 11 11 11 11 11 11 11 11 11 11 11 11 11 11 11 11 11 11 11 11 11 11 11 11 10 10 10 10 10 10
10 10 10 10 10 10 10 10 11 11 11 11 11 11 11 11 11 11 11 11 11 11 11 11 11 11 11 11 11 11 11 11 11 11 11 10 10 10 10 10 10 10 9
10 10 10 9 10 10 10 10 10 10 10 10 10 10 10 10 10 10 10 10 10 10 10 10 10 10 10 10 10 10 10 10 10 10 10 10 10 10 10 9 9 9 9
9 9 9 9 9 9 9 9 9 10 10 10 10 9 9 10 10 10 10 10 10 10 10 10 10 10 10 10 10 10 10 10 10 10 10 10 10 9 9 9 9 9 9
9 9 9 9 9 9 9 9 9 9 9 9 9 9 9 9 9 9 9 9 9 9 9 9 9 9 9 9 9 9 9 9 9 9 9 9 9 9 9 9 8 8 8
8 8 8 8 8 8 8 8 8 8 8 8 8 8 8 8 8 8 8 9 9 9 9 8 8 9 9 9 9 9 9 9 9 9 9 8 8 8 8 8 8 8 8
8 8 8 8 8 8 8 8 8 8 8 8 8 8 8 8 8 8 8 8 8 8 8 8 8 8 8 8 8 8 8 8 8 8 8 8 8 7 7 7 7 7 7
7 7 7 7 7 7 7 8 7 7 7 7 7 7 7 7 7 7 7 7 7 7 7 7 7 7 7 7 7 7 7 7 7 7 7 7 7 7 7 6 6 7 7
7 7 7 7 7 7 7 7 7 7 7 7 7 7 7 7 7 7 6 6 6 6 6 6 6 6 6 6 6 6 6 6 6 6 6 6 6 6 6 6 6 6 6
7 7 6 6 6 6 6 6 6 6 6 6 6 6 6 6 6 6 6 6 6 6 6 5 5 5 5 5 5 4 4 4 5 5 5 6 6 5 5 5 5 5 5
6 6 6 6 6 6 6 6 6 6 6 6 6 6 5 5 5 5 5 5 5 5 5 5 4 4 4 4 4 4 3 3 3 3 4 5 5 5 5 5 5 5 4
6 6 6 5 5 5 5 5 5 5 5 5 5 5 5 5 4 5 5 4 4 4 4 4 4 4 3 3 3 3 3 2 2 1 2 3 4 4 4 4 4 4 4
6 5 5 5 5 5 5 5 5 5 5 5 5 4 4 4 4 4 4 4 4 4 4 3 3 3 3 3 2 2 2 1 1 1 1 1 2 3 3 3 3 3 3
Wind_Speed
1 2 3 5 6 8 9 10 10 10 10 11 11 12 12 12 12 12 12 12 12 12 12 12 12 13 13 13 14 14 13 13 12 12 12 13 13 13 12 12 12 11 12
1 1 4 6 7 9 10 10 9 10 10 10 12 12 12 12 12 12 12 12 11 11 11 12 12 12 13 13 13 13 13 13 13 12 12 11 11 11 12 11 11 10 11
1 3 5 6 8 9 10 10 9 10 10 10 12 12 12 12 12 12 11 11 11 11 11 11 11 11 12 12 12 12 12 12 12 12 11 10 9 10 11 10 10 10 10
3 4 5 7 8 9 10 10 10 10 10 10 11 11 11 11 11 12 11 11 11 11 11 12 11 11 11 11 11 11 11 11 11 11 10 9 8 9 9 9 9 10 9
4 5 6 8 9 10 10 11 10 10 10 10 11 11 11 11 11 11 11 10 10 10 11 11 11 11 11 11 10 10 11 11 11 10 9 8 7 7 8 8 9 9 9
5 5 6 8 9 10 10 10 10 10 10 11 11 11 10 10 11 11 11 10 10 10 10 10 11 10 10 10 10 10 10 10 10 8 7 7 6 6 6 6 7 7 8
5 6 6 7 9 9 10 10 9 10 10 10 10 10 10 10 11 11 10 10 10 10 10 10 10 10 10 10 10 9 9 9 8 7 6 5 4 4 4 5 5 6 6
6 6 6 7 8 8 9 9 9 10 10 10 10 10 10 10 10 10 10 9 9 9 8 8 9 9 10 10 9 9 9 9 7 6 4 4 3 3 4 4 4 5 5
7 7 7 6 7 7 8 9 9 9 10 9 9 9 9 9 9 10 9 9 9 9 8 8 8 8 9 9 9 9 9 9 8 6 4 4 4 3 3 3 4 4 4
6 6 7 7 7 7 8 8 9 9 9 9 9 10 10 10 10 10 9 9 8 8 8 8 8 8 8 9 9 9 8 8 7 6 5 4 4 4 3 3 2 2 3
5 5 6 7 8 8 8 8 9 9 10 10 10 10 10 9 9 9 9 9 8 8 8 8 8 9 8 8 8 8 8 7 6 6 5 5 4 4 3 3 2 1 2
3 3 4 6 6 7 7 9 9 9 10 10 9 9 9 9 8 8 9 9 9 9 9 9 9 8 8 8 8 7 7 6 5 5 5 5 4 4 4 3 2 2 1
2 3 3 4 6 7 6 7 7 8 9 9 9 9 8 8 8 8 8 8 8 8 8 8 8 7 7 6 6 6 6 5 5 4 5 5 5 4 4 4 4 3 3
3 3 3 4 5 6 7 6 6 6 7 7 8 8 8 6 6 6 6 6 7 6 6 6 6 6 6 5 5 5 5 4 4 4 4 5 5 4 4 4 4 4 3
2 2 2 3 4 5 6 5 5 5 6 6 7 7 7 6 4 5 5 6 6 6 6 5 5 5 4 5 4 4 3 4 4 4 4 5 5 5 4 4 4 4 5
2 2 2 3 3 5 4 4 4 5 5 6 6 6 6 6 5 4 4 5 5 5 5 4 4 4 4 3 3 4 3 3 4 4 4 5 5 5 5 5 5 5 5
3 3 3 3 3 4 4 4 4 5 5 5 5 6 6 6 5 4 4 4 4 5 5 4 5 4 3 4 3 4 3 3 3 3 4 4 5 5 5 5 5 5 6
3 3 3 3 3 3 3 4 4 5 5 4 4 5 5 6 6 5 3 3 4 4 4 3 3 2 3 3 3 3 3 3 3 3 3 3 3 4 5 6 7 6 7
4 4 3 3 3 2 2 3 4 5 4 4 4 5 4 5 5 4 3 3 4 4 3 2 2 2 2 3 3 3 3 2 2 2 3 3 3 4 4 6 7 7 8
3 4 4 3 3 3 2 3 3 4 4 4 3 4 4 4 4 4 3 3 4 3 2 2 2 2 1 2 3 3 3 3 2 1 2 2 3 4 4 5 6 7 8
3 3 3 3 3 3 2 2 2 1 1 1 2 3 3 3 3 3 3 3 2 1 1 1 1 2 2 2 2 3 3 3 2 1 1 2 3 4 5 5 5 6 6
3 3 3 3 3 3 2 1 1 1 1 1 2 3 3 3 2 2 2 1 1 1 1 1 1 1 1 2 2 1 3 4 3 3 2 2 2 4 4 6 6 6 7
4 4 4 3 3 3 3 2 2 2 2 1 1 1 2 2 1 1 1 1 1 1 0 0 0 1 0 1 1 1 0 2 3 3 3 2 3 3 3 5 6 7 7
4 4 4 4 3 3 3 4 3 2 1 1 1 1 2 2 2 1 1 0 1 0 1 1 0 0 1 1 1 0 1 2 1 3 3 3 4 4 4 5 5 6 7
4 4 4 4 3 3 3 4 4 2 1 0 0 0 1 1 2 2 1 0 0 0 1 1 1 1 1 2 1 1 1 1 2 3 4 4 3 3 3 4 4 5 6
3 3 4 4 3 3 3 3 3 3 2 1 0 1 1 1 1 2 2 1 1 1 2 2 3 3 2 2 2 2 2 2 2 3 4 5 6 4 4 4 3 3 5
Wind_Direction
269 301 134 113 112 115 109 102 97 97 94 98 99 97 94 92 89 87 88 87 85 83 83 83 83 81 81 79 78 77 75 74 75 75 73 73 72 75 76 74 71 70 70
208 184 140 121 119 118 110 103 99 99 95 100 98 95 92 90 86 84 85 86 85 83 81 81 81 82 81 80 79 77 75 72 71 70 69 69 69 72 72 71 72 75 73
109 132 137 126 122 119 112 107 103 100 96 96 95 91 88 86 84 81 81 81 81 79 78 79 81 81 81 80 79 78 77 74 71 69 66 62 64 72 72 69 70 74 74
98 113 124 122 117 116 112 107 104 101 98 93 93 91 88 86 85 80 80 79 78 76 76 78 78 80 81 81 81 80 78 77 74 72 64 61 62 70 71 67 69 71 73
82 95 111 117 114 112 110 107 104 101 98 96 95 91 88 87 87 83 79 81 79 77 77 79 78 76 76 77 78 80 78 77 73 70 64 60 59 69 73 70 70 71 73
79 90 105 115 113 110 109 108 105 102 97 95 94 91 89 87 87 85 82 80 80 77 78 77 77 73 73 73 73 75 77 75 71 68 64 62 58 64 73 75 73 73 75
79 78 98 116 115 112 111 108 105 103 99 95 93 91 90 88 85 84 83 81 78 77 75 73 73 71 70 70 70 72 73 74 70 64 60 59 55 59 67 73 75 75 77
82 73 84 109 112 114 111 109 106 103 99 96 93 90 89 87 87 85 85 83 78 77 74 72 70 68 66 64 65 66 65 67 66 56 50 49 52 54 57 66 70 76 76
71 71 69 82 95 104 107 105 104 100 96 94 92 88 86 85 82 80 79 79 78 76 73 70 67 66 64 62 60 60 61 60 56 46 42 38 40 42 51 58 62 67 66
63 60 60 66 73 81 92 97 98 94 91 89 86 83 79 76 74 71 65 66 71 72 70 69 68 65 62 62 59 55 53 52 46 38 32 32 37 37 37 46 44 55 52
63 50 52 62 66 73 80 84 84 83 82 80 77 76 74 70 67 64 59 59 58 64 65 63 63 63 59 56 56 52 49 44 40 31 23 20 21 22 19 16 18 24 28
85 58 49 60 65 72 76 75 74 74 74 74 75 76 74 71 66 64 56 51 50 54 56 54 54 56 54 48 45 46 41 39 36 22 16 12 9 5 357 358 355 345 328
116 84 59 64 69 73 72 73 71 73 72 70 71 75 76 71 63 58 52 45 44 45 45 44 46 45 49 47 42 37 32 30 20 8 2 3 359 354 353 350 348 336 322
104 92 78 72 73 74 76 73 71 69 69 66 67 73 75 69 60 54 52 46 45 44 43 42 43 39 39 39 41 39 29 22 7 354 351 356 354 347 346 349 345 345 348
118 103 85 76 79 80 79 74 72 69 70 69 68 68 73 72 64 57 51 50 47 46 46 40 36 32 30 26 26 30 19 7 4 360 352 354 352 348 344 343 341 341 337
149 132 111 98 82 82 83 81 79 76 75 70 64 64 71 73 72 66 56 50 44 44 47 46 38 33 22 23 18 13 4 359 2 359 351 348 350 346 345 341 337 335 332
163 139 129 126 93 89 87 85 82 79 76 68 62 63 67 71 74 72 66 54 41 43 50 51 40 38 27 19 3 359 2 357 356 355 354 354 357 354 349 345 337 331 326
154 142 138 130 111 94 85 86 85 80 76 66 64 66 65 69 74 70 67 54 41 50 52 54 41 26 17 4 350 339 345 346 348 351 2 6 12 6 359 355 347 335 330
158 148 141 128 119 112 91 82 85 83 73 65 63 61 59 64 70 69 65 50 48 54 49 44 40 34 10 356 339 329 327 322 328 355 15 14 18 13 3 354 352 344 338
143 139 134 119 114 113 98 82 74 70 61 58 59 56 58 58 63 68 64 51 52 57 45 40 32 28 13 348 341 337 325 317 325 333 345 11 22 17 8 1 356 348 345
124 132 142 138 136 124 116 113 102 97 71 52 41 40 50 56 60 67 60 60 59 64 46 46 50 35 22 8 11 349 334 326 334 343 356 8 13 14 15 6 357 350 344
158 161 157 157 152 146 146 139 125 140 138 68 32 35 36 43 53 64 71 67 60 61 36 38 55 53 21 27 41 14 343 337 349 353 350 354 354 6 6 357 353 347 338
176 176 172 164 151 146 123 99 75 59 49 48 17 355 3 10 26 46 69 87 69 102 140 342 77 96 197 325 42 113 82 288 312 317 328 338 341 345 345 346 347 339 332
194 179 172 169 158 148 137 141 143 155 189 224 256 283 338 357 359 359 14 92 122 115 209 238 219 206 187 242 288 292 217 207 274 307 308 325 333 328 325 331 331 325 324
187 176 174 167 165 161 158 164 164 178 199 193 305 329 335 339 338 340 332 332 254 238 237 232 233 229 212 220 222 241 256 267 234 250 286 305 313 296 303 306 308 313 316
172 165 165 168 178 172 169 175 176 184 185 174 239 278 317 323 330 333 316 289 265 255 247 240 232 226 226 230 233 228 223 232 237 246 270 290 296 293 295 287 286 302 314
Height
1517 1518 1520 1521 1522 1523 1523 1524 1525 1525 1526 1526 1527 1527 1528 1528 1529 1529 1530 1530 1531 1531 1532 1532 1532 1533 1533 1533 1533 1533 1533 1533 1534 1534 1534 1534 1535 1535 1535 1535 1534 1534 1534
1516 1518 1520 1521 1522 1523 1524 1525 1525 1526 1527 1527 1528 1528 1529 1529 1529 1530 1530 1531 1531 1532 1533 1533 1533 1534 1533 1533 1534 1534 1534 1534 1534 1535 1535 1535 1535 1536 1535 1535 1535 1535 1535
1516 1518 1519 1521 1522 1523 1524 1525 1526 1527 1527 1527 1528 1529 1529 1530 1530 1530 1531 1531 1532 1533 1533 1534 1534 1534 1534 1534 1534 1534 1535 1535 1535 1535 1536 1536 1536 1536 1536 1536 1536 1536 1536
1516 1518 1519 1521 1522 1524 1525 1525 1526 1527 1528 1528 1529 1529 1530 1530 1531 1531 1531 1532 1532 1533 1533 1534 1534 1534 1534 1535 1535 1535 1535 1535 1536 1536 1536 1536 1536 1537 1537 1537 1537 1536 1536
1517 1518 1519 1521 1523 1524 1525 1526 1527 1527 1528 1529 1529 1530 1530 1531 1531 1531 1532 1532 1533 1533 1534 1534 1535 1535 1535 1535 1536 1536 1536 1536 1536 1537 1537 1537 1537 1537 1537 1537 1537 1537 1537
1517 1518 1520 1521 1523 1524 1525 1526 1527 1528 1528 1529 1530 1530 1531 1531 1531 1532 1532 1533 1533 1533 1534 1535 1535 1535 1535 1536 1536 1536 1536 1536 1536 1537 1537 1537 1537 1537 1538 1537 1537 1537 1537
1517 1518 1520 1521 1523 1524 1525 1526 1527 1528 1529 1529 1530 1531 1531 1532 1532 1532 1532 1533 1533 1534 1534 1535 1535 1535 1535 1536 1536 1536 1536 1536 1537 1537 1537 1537 1537 1538 1538 1537 1538 1537 1537
1517 1518 1520 1521 1523 1524 1525 1526 1527 1528 1528 1529 1530 1530 1531 1531 1532 1532 1532 1533 1533 1534 1534 1534 1535 1535 1535 1535 1536 1536 1536 1536 1536 1537 1537 1537 1537 1537 1537 1537 1537 1537 1537
1517 1518 1519 1521 1522 1523 1525 1525 1526 1527 1528 1529 1530 1530 1531 1531 1532 1532 1532 1533 1533 1533 1534 1534 1534 1535 1535 1535 1535 1535 1536 1536 1536 1536 1536 1537 1537 1537 1537 1537 1537 1537 1537
1516 1518 1519 1520 1522 1523 1524 1525 1526 1527 1528 1528 1529 1530 1530 1531 1531 1531 1532 1532 1533 1533 1533 1534 1534 1534 1534 1534 1535 1535 1535 1535 1535 1535 1536 1536 1536 1536 1536 1536 1536 1536 1536
1516 1517 1518 1519 1521 1522 1523 1525 1526 1526 1527 1528 1528 1529 1530 1530 1530 1531 1531 1532 1532 1533 1533 1533 1533 1533 1533 1533 1534 1534 1534 1534 1535 1535 1535 1535 1535 1535 1535 1535 1535 1535 1535
1515 1516 1517 1518 1520 1521 1522 1524 1525 1526 1526 1527 1527 1528 1529 1529 1530 1530 1531 1531 1531 1532 1532 1532 1532 1532 1532 1532 1532 1533 1533 1533 1533 1534 1534 1534 1534 1534 1534 1534 1534 1533 1533
1514 1515 1516 1518 1519 1520 1521 1523 1524 1525 1525 1526 1526 1527 1528 1528 1529 1529 1530 1530 1530 1531 1531 1531 1531 1531 1531 1531 1531 1531 1531 1532 1532 1532 1532 1532 1532 1532 1532 1532 1532 1532 1532
1513 1514 1516 1517 1518 1519 1520 1521 1523 1523 1524 1525 1526 1526 1527 1527 1528 1528 1528 1529 1529 1529 1529 1529 1530 1530 1530 1530 1530 1530 1530 1530 1530 1530 1530 1530 1530 1530 1530 1530 1530 1530 1530
1512 1513 1514 1515 1517 1518 1519 1520 1521 1522 1523 1524 1524 1525 1525 1526 1526 1527 1527 1527 1527 1527 1528 1528 1528 1528 1528 1528 1528 1528 1528 1528 1528 1528 1528 1528 1527 1527 1527 1527 1527 1527 1527
1510 1511 1513 1514 1515 1516 1518 1519 1520 1521 1521 1522 1523 1524 1524 1525 1525 1525 1525 1525 1525 1525 1526 1526 1526 1526 1526 1526 1526 1526 1526 1526 1525 1525 1525 1525 1525 1525 1525 1525 1525 1525 1524
1508 1509 1511 1513 1514 1515 1516 1517 1518 1519 1520 1521 1521 1522 1523 1523 1523 1523 1523 1523 1524 1524 1524 1524 1524 1524 1524 1524 1524 1523 1523 1523 1523 1523 1522 1522 1522 1522 1522 1522 1521 1521 1521
1506 1507 1509 1511 1512 1513 1514 1515 1517 1517 1518 1519 1520 1520 1521 1521 1521 1522 1522 1522 1522 1522 1522 1522 1521 1521 1521 1521 1521 1521 1521 1520 1520 1520 1519 1519 1519 1519 1519 1518 1518 1518 1518
1504 1505 1507 1508 1509 1511 1513 1514 1515 1516 1516 1517 1518 1519 1519 1519 1519 1520 1520 1520 1520 1519 1519 1519 1519 1519 1518 1518 1518 1518 1518 1517 1517 1516 1516 1516 1516 1515 1515 1515 1515 1515 1514
1502 1503 1504 1506 1507 1509 1511 1512 1513 1514 1515 1515 1516 1517 1517 1517 1517 1517 1517 1517 1517 1517 1517 1517 1516 1516 1516 1515 1515 1514 1514 1514 1514 1513 1513 1513 1513 1512 1512 1512 1511 1511 1510
1499 1501 1502 1504 1505 1507 1508 1509 1510 1511 1513 1513 1514 1514 1515 1515 1515 1515 1515 1515 1515 1514 1514 1514 1514 1513 1513 1512 1511 1511 1511 1511 1510 1510 1510 1510 1510 1509 1509 1508 1508 1507 1506
1497 1499 1500 1501 1503 1504 1506 1507 1509 1509 1510 1511 1511 1512 1512 1513 1513 1513 1513 1513 1512 1512 1512 1512 1511 1511 1510 1510 1509 1508 1507 1508 1507 1507 1507 1507 1506 1506 1505 1504 1504 1503 1502
1495 1497 1498 1499 1501 1502 1504 1505 1506 1507 1507 1507 1508 1509 1510 1510 1510 1510 1510 1510 1510 1509 1509 1509 1509 1508 1508 1508 1508 1508 1507 1505 1503 1503 1503 1503 1502 1502 1502 1501 1500 1499 1499
1494 1495 1496 1498 1499 1500 1501 1502 1503 1504 1504 1504 1506 1506 1507 1507 1508 1508 1507 1507 1507 1506 1506 1506 1506 1506 1505 1505 1505 1505 1505 1504 1503 1499 1498 1498 1498 1498 1497 1497 1496 1495 1494
1491 1493 1494 1495 1496 1497 1498 1499 1500 1501 1502 1503 1504 1504 1504 1504 1504 1504 1504 1504 1504 1503 1503 1503 1503 1503 1502 1502 1501 1501 1501 1501 1500 1498 1494 1493 1493 1493 1492 1492 1491 1490 1490
1489 1490 1491 1492 1493 1494 1495 1496 1497 1498 1499 1499 1500 1500 1500 1501 1501 1501 1501 1501 1501 1500 1500 1499 1499 1499 1498 1498 1498 1497 1497 1497 1496 1495 1492 1489 1487 1487 1487 1486 1486 1485 1484